Find Starlink 32670

NORAD ID: 62210 Int'l Des: 2024-229 Owner: SPXS Country: US Constellation: starlink operational
LEOCIRCULAR

Live Position

Loading 3D Globe...

About Starlink 32670

Description loading...

Upcoming Passes

Passes for default location (London). Set your location on the main map for personalized predictions.

Altitude History

Loading altitude history...

Two-Line Element Set

1 62210U 24229U 26121.98371829 .00020588 00000-0 75510-3 0 9993
2 62210 43.0010 329.5921 0001703 253.8449 106.2216 15.27600438 78715
Epoch: May 1, 2026 • Age: 15 hours

Current Status

Altitude 483.2 km
Velocity 7.63 km/s
Sub-Earth Point 24.31°N, 41.47°E
Launch Date Dec 4, 2024
Age 1.4 years
Type internet

Technical Details

Classification Payload
Mass 730.00 kg
Dry Mass 700.00 kg
Total Mass 730.00 kg
Length 0.30 m
Diameter 4.10 m
Span 29.00 m
Shape Box + pan
Manufacturer SPXS
Bus Type Starlink V2M
Phase Status In Orbit
Owner/State SPXS/US

Most Searched